Tracking 31013 objects as of 10-Jul-2025
HD Live streaming from Space Station
objects crossing your sky now

STARLINK-5600

Track STARLINK-5600 now!
10-day predictions
STARLINK-5600 is classified as:


NORAD ID: 57357
Int'l Code: 2023-099AF
Perigee: 565.4 km
Apogee: 566.9 km
Inclination: 43.0 °
Period: 95.8 minutes
Semi major axis: 6937 km
RCS: Unknown
Launch date: July 16, 2023
Source: United States (US)
Launch site: AIR FORCE EASTERN TEST RANGE (AFETR)
Your satellite tracking list
Your tracking list is empty




NASA's NSSDC Master Catalog

Two Line Element Set (TLE):
1 57357U 23099AF  25190.52361751  .00001850  00000-0  15189-3 0  9998
2 57357  43.0039 117.6216 0001095 288.7704  71.3020 15.02551183109681
Source of the keplerian elements: AFSPC